Location: Olmeneta
(45.2333°N, 10.0167°E)
Time: 14:48:46
(UTC+00:00)

Resurs 1-3 - Pass Details

Date: 03 March 2021
Orbit: 629 x 633 km, 97.9° (Epoch: 15 April)

Event Time Altitude Azimuth Distance (km) Brightness Sun altitude
Exits shadow 19:38:49 55° 341° (NNW) 765 4.1 -26.7°
Drops below altitude 10° 19:42:17 10° 346° (NNW) 2,026 6.6 -27.2°
Sets 19:44:30 0° 347° (NNW) 2,939 7.5 -27.6°
